This demonstration page uses our WeatherBlox Daily Observations layout. Learn more.

Left ArrowRight Arrow

39.29038, -76.61219

Hourly Observations for October 27, 2016

Temp ( °F °C ) Dew Point ( °F °C ) Humidity (%) Winds ( mph kmh ) Pressure ( in mb ) Visibility ( mi km ) Precip ( " mm )
12:54 am 00:54 undefined 51 10.6 34 1.1 52 52 undefined N/A 30.40 1030 N/A 0.00 0.00
1:54 am 01:54 undefined 51 10.6 34 1.1 52 52 undefined N/A 30.39 1029 N/A 0.00 0.00
2:54 am 02:54 undefined 51 10.6 36 2.2 56 56 undefined N/A 30.38 1029 N/A 0.00 0.00
3:54 am 03:54 undefined 51 10.6 37 2.8 59 59 undefined N/A 30.36 1028 N/A 0.00 0.00
4:54 am 04:54 undefined 52 11.1 39 3.9 61 61 undefined N/A 30.34 1028 N/A 0.00 0.00
5:54 am 05:54 undefined 51 10.6 39 3.9 64 64 undefined N/A 30.33 1027 N/A 0.00 0.00
6:54 am 06:54 undefined 51 10.6 41 5 69 69 undefined N/A 30.32 1027 N/A 0.00 0.00
7:54 am 07:54 undefined 52 11.1 42 5.6 69 69 undefined N/A 30.32 1027 N/A 0.00 0.00
8:54 am 08:54 undefined 55 12.8 46 7.8 72 72 undefined N/A 30.31 1027 N/A 0.00 0.00
9:54 am 09:54 undefined 55 12.8 46 7.8 72 72 undefined N/A 30.30 1026 N/A 0.00 0.00
10:54 am 10:54 undefined 56 13.3 47 8.3 72 72 undefined N/A 30.27 1025 N/A 0.00 0.00
11:54 am 11:54 undefined 59 15 50 10 72 72 undefined N/A 30.24 1024 N/A 0.00 0.00
12:54 pm 12:54 undefined 60 15.6 51 10.6 72 72 undefined N/A 30.22 1023 N/A 0.00 0.00
1:54 pm 13:54 undefined 60 15.6 54 12.2 80 80 undefined N/A 30.16 1021 N/A 0.01 0.25
2:54 pm 14:54 undefined 60 15.6 55 12.8 84 84 undefined N/A 30.12 1020 N/A 0.00 0.00
3:54 pm 15:54 undefined 59 15 56 13.3 90 90 undefined N/A 30.11 1020 N/A 0.02 0.51
4:54 pm 16:54 undefined 60 15.6 56 13.3 86 86 undefined N/A 30.09 1019 N/A 0.00 0.00
5:54 pm 17:54 undefined 61 16.1 57 13.9 87 87 undefined N/A 30.06 1018 N/A 0.00 0.00
6:54 pm 18:54 undefined 61 16.1 57 13.9 87 87 undefined N/A 30.05 1018 N/A 0.00 0.00
7:54 pm 19:54 undefined 60 15.6 57 13.9 90 90 undefined N/A 30.05 1018 N/A 0.00 0.00
8:54 pm 20:54 undefined 59 15 57 13.9 93 93 undefined N/A 30.04 1017 N/A 0.00 0.00
9:54 pm 21:54 undefined 59 15 56 13.3 90 90 undefined N/A 30.04 1017 N/A 0.00 0.00
10:54 pm 22:54 undefined 61 16.1 57 13.9 87 87 undefined N/A 30.06 1018 N/A 0.00 0.00
11:54 pm 23:54 undefined 60 15.6 55 12.8 84 84 undefined N/A 30.08 1019 N/A 0.00 0.00

Powered by AerisWeather